Find Local Weather

World > North America > United States > Wisconsin

Cambridge, Wisconsin Regional Weather

Lat: 43.01N, Lon: 89.02W
Wx Zone: WIZ063
Feedback

Cambridge, WI Regional Weather

Expires:201903261300;;365567
ASUS43 KMKX 261200
RWRWI 

WISCONSIN REGIONAL WEATHER ROUNDUP
NATIONAL WEATHER SERVICE MILWAUKEE/SULLIVAN WI
700 AM CDT TUE MAR 26 2019

NOTE: "FAIR" INDICATES FEW OR NO CLOUDS BELOW 12,000 FEET WITH NO
SIGNIFICANT WEATHER AND/OR OBSTRUCTIONS TO VISIBILITY.


WIZ051-052-058>065-066-070>072-261300-
SOUTHEAST WISCONSIN
  
CITY           SKY/WX    TMP DP  RH WIND       PRES   REMARKS
MILWAUKEE      FAIR      25  17  72 VRB3      30.44R                  
6HR MIN TEMP:  23; 6HR MAX TEMP:  27;                                

WAUKESHA       CLEAR     18  16  93 CALM      30.44R                  
MILWAUKEE/TIMM FAIR      19  16  86 CALM      30.45R                  
RACINE         FAIR      21  18  88 CALM      30.45R                  
6HR MIN TEMP:  21; 6HR MAX TEMP:  24;                                

KENOSHA        FAIR      21  19  92 CALM      30.43R                  
6HR MIN TEMP:  18; 6HR MAX TEMP:  24;                                

FOND DU LAC    FAIR      21  18  88 N3        30.42R                  
6HR MIN TEMP:  20; 6HR MAX TEMP:  28;                                

SHEBOYGAN      FAIR      24  20  84 SW3       30.42S                  
6HR MIN TEMP:  21; 6HR MAX TEMP:  27;                                

WEST BEND      FAIR      19  18  93 CALM      30.42S                  
JUNEAU         NOT AVBL                                               
$$


SKY/WX - Weather  TMP - Temperature  DP - Dew Point  RH - Relative Humidity
WIND - Wind Direction/Speed PRES - Barometric Pressure VSB - Visibility
WCI - Wind Chill Index E13G22 Wind - East Wind 13 mph/Gusts of 22 mph